Marfa, TX

1:26 AM CDT on August 20, 2017 (GMT -0500)
Marfa Municipal

Weather History for KMRF - December, 2013

Change the Weather History Date:

Saturday, December 21, 2013

  Actual Average Record
Temperature  
Mean Temperature 41 °F -  
Max Temperature 50 °F 52 °F 73 °F (2010)
Min Temperature 32 °F 22 °F 15 °F (1996)
Degree Days  
Heating Degree Days 24    
Moisture  
Dew Point 31 °F    
Average Humidity 69    
Maximum Humidity 100    
Minimum Humidity 43    
Precipitation  
Precipitation 0.00 in - - ()
Sea Level Pressure  
Sea Level Pressure 29.78 in    
Wind  
Wind Speed 15 mph (WSW)    
Max Wind Speed 32 mph    
Max Gust Speed 39 mph    
Visibility 10 miles    
Events      
Averages and records for this station are not official NWS values.
T = Trace of Precipitation, MM = Missing Value Source: NWS Daily Summary

Daily Weather History Graph

Daily Weather History Graph

Search for Another Location

Airport or City:

Trip Planner

Search our weather history database for the weather conditions in past years. The results will help you decide how hot, cold, wet, or windy it might be!

Date:

Astronomy

Dec. 21, 2013 Rise Set
Actual Time 7:48 AM CST 5:59 PM CST
Civil Twilight 7:22 AM CST 6:26 PM CST
Nautical Twilight 6:52 AM CST 6:56 PM CST
Astronomical Twilight 6:22 AM CST 7:25 PM CST
Moon 10:02 PM CST (12/21) 10:30 AM CST (12/21)
Length of Visible Light 11h 04m
Length of Day
10h 11m
Waning Gibbous, 84% of the Moon is Illuminated
Dec 21
Waning Gibbous
Dec 25
Last Quarter
Jan 1
New
Jan 7
First Quarter
Jan 15
Full

Hourly Weather History & Observations

Time (CST) Temp. Windchill Dew Point Humidity Pressure Visibility Wind Dir Wind Speed Gust Speed Precip Events Conditions
12:15 AM 46.4 °F 41.5 °F 44.6 °F 93% 29.73 in 10.0 mi South 10.4 mph - N/A   Scattered Clouds
12:35 AM 46.4 °F 41.5 °F 44.6 °F 93% 29.72 in 10.0 mi South 10.4 mph - N/A   Mostly Cloudy
12:55 AM 44.6 °F 39.2 °F 42.8 °F 93% 29.72 in 10.0 mi South 10.4 mph - N/A   Partly Cloudy
1:15 AM 44.6 °F 39.7 °F 44.6 °F 100% 29.70 in 10.0 mi South 9.2 mph - N/A   Partly Cloudy
1:35 AM 44.6 °F 38.4 °F 44.6 °F 100% 29.68 in 10.0 mi South 12.7 mph - N/A   Partly Cloudy
1:55 AM 44.6 °F 38.4 °F 42.8 °F 93% 29.70 in 10.0 mi SSW 12.7 mph - N/A   Clear
2:15 AM 41.0 °F 31.4 °F 39.2 °F 93% 29.72 in 10.0 mi West 21.9 mph 31.1 mph N/A   Mostly Cloudy
2:35 AM 39.2 °F 28.3 °F 39.2 °F 100% 29.73 in 10.0 mi West 25.3 mph - N/A   Overcast
2:55 AM 39.2 °F 29.6 °F 37.4 °F 93% 29.73 in 10.0 mi West 19.6 mph 27.6 mph N/A   Overcast
3:15 AM 39.2 °F 32.5 °F 37.4 °F 93% 29.73 in 10.0 mi West 10.4 mph 17.3 mph N/A   Scattered Clouds
3:35 AM 37.4 °F 30.3 °F 37.4 °F 100% 29.73 in 10.0 mi West 10.4 mph - N/A   Clear
3:55 AM 37.4 °F 30.3 °F 35.6 °F 93% 29.73 in 10.0 mi West 10.4 mph - N/A   Clear
4:15 AM 37.4 °F 31.4 °F 35.6 °F 93% 29.73 in 10.0 mi West 8.1 mph - N/A   Clear
4:35 AM 35.6 °F 28.0 °F 33.8 °F 93% 29.72 in 10.0 mi West 10.4 mph - N/A   Clear
4:55 AM 35.6 °F 26.2 °F 33.8 °F 93% 29.72 in 10.0 mi West 15.0 mph - N/A   Clear
5:15 AM 35.6 °F 26.2 °F 32.0 °F 87% 29.72 in 10.0 mi West 15.0 mph - N/A   Clear
5:35 AM 35.6 °F 26.6 °F 30.2 °F 81% 29.72 in 10.0 mi West 13.8 mph - N/A   Clear
5:55 AM 33.8 °F 27.0 °F 30.2 °F 87% 29.73 in 10.0 mi West 8.1 mph - N/A   Clear
6:15 AM 33.8 °F 30.8 °F 28.4 °F 81% 29.73 in 10.0 mi WNW 3.5 mph - N/A   Clear
6:35 AM 33.8 °F 29.6 °F 28.4 °F 81% 29.73 in 10.0 mi SSW 4.6 mph - N/A   Clear
6:55 AM 32.0 °F 26.4 °F 28.4 °F 87% 29.73 in 10.0 mi SSW 5.8 mph - N/A   Clear
7:15 AM 32.0 °F 25.6 °F 28.4 °F 87% 29.74 in 10.0 mi West 6.9 mph - N/A   Partly Cloudy
7:35 AM 32.0 °F 24.2 °F 28.4 °F 87% 29.74 in 10.0 mi West 9.2 mph - N/A   Partly Cloudy
7:55 AM 32.0 °F 24.8 °F 28.4 °F 87% 29.74 in 10.0 mi SW 8.1 mph - N/A   Clear
8:15 AM 33.8 °F 27.0 °F 30.2 °F 87% 29.74 in 10.0 mi West 8.1 mph - N/A   Clear
8:35 AM 33.8 °F 26.4 °F 30.2 °F 87% 29.75 in 10.0 mi WSW 9.2 mph - N/A   Clear
8:55 AM 35.6 °F 26.6 °F 30.2 °F 81% 29.76 in 10.0 mi WSW 13.8 mph - N/A   Clear
9:15 AM 37.4 °F 28.2 °F 28.4 °F 70% 29.76 in 10.0 mi WSW 16.1 mph 20.7 mph N/A   Partly Cloudy
9:35 AM 39.2 °F 29.3 °F 28.4 °F 65% 29.77 in 10.0 mi WSW 20.7 mph 25.3 mph N/A   Partly Cloudy
9:55 AM 41.0 °F 31.4 °F 26.6 °F 57% 29.78 in 10.0 mi WSW 21.9 mph 26.5 mph N/A   Scattered Clouds
10:15 AM 42.8 °F 35.4 °F 26.6 °F 53% 29.79 in 10.0 mi WSW 15.0 mph - N/A   Mostly Cloudy
10:35 AM 42.8 °F 33.8 °F 28.4 °F 57% 29.79 in 10.0 mi West 21.9 mph 26.5 mph N/A   Mostly Cloudy
10:55 AM 44.6 °F 35.5 °F 26.6 °F 49% 29.78 in 10.0 mi WSW 25.3 mph 29.9 mph N/A   Partly Cloudy
11:15 AM 44.6 °F 35.1 °F 28.4 °F 53% 29.78 in 10.0 mi WSW 27.6 mph 33.4 mph N/A   Clear
11:35 AM 44.6 °F 34.7 °F 28.4 °F 53% 29.76 in 10.0 mi WSW 29.9 mph 38.0 mph N/A   Clear
11:55 AM 46.4 °F 37.0 °F 28.4 °F 50% 29.77 in 10.0 mi WSW 31.1 mph 38.0 mph N/A   Clear
12:15 PM 46.4 °F 36.9 °F 28.4 °F 50% 29.76 in 10.0 mi WSW 32.2 mph 39.1 mph N/A   Partly Cloudy
12:35 PM 46.4 °F 37.4 °F 28.4 °F 50% 29.76 in 10.0 mi WSW 28.8 mph 36.8 mph N/A   Clear
12:55 PM 44.6 °F 34.9 °F 28.4 °F 53% 29.77 in 10.0 mi WSW 28.8 mph 36.8 mph N/A   Scattered Clouds
1:15 PM 44.6 °F 35.3 °F 28.4 °F 53% 29.76 in 10.0 mi WSW 26.5 mph 34.5 mph N/A   Overcast
1:35 PM 48.2 °F - 30.2 °F 50% 29.76 in 10.0 mi WSW 28.8 mph 34.5 mph N/A   Overcast
1:55 PM 46.4 °F 38.1 °F 28.4 °F 50% 29.76 in 10.0 mi WSW 24.2 mph 32.2 mph N/A   Mostly Cloudy
2:15 PM 46.4 °F 38.5 °F 28.4 °F 50% 29.76 in 10.0 mi WSW 21.9 mph 31.1 mph N/A   Overcast
2:35 PM 44.6 °F 36.1 °F 28.4 °F 53% 29.76 in 10.0 mi WSW 21.9 mph 29.9 mph N/A   Overcast
2:55 PM 46.4 °F 38.7 °F 28.4 °F 50% 29.77 in 10.0 mi WSW 20.7 mph 27.6 mph N/A   Overcast
3:15 PM 46.4 °F 37.7 °F 28.4 °F 50% 29.76 in 10.0 mi West 26.5 mph 33.4 mph N/A   Overcast
3:35 PM 48.2 °F - 28.4 °F 46% 29.77 in 10.0 mi West 25.3 mph - N/A   Overcast
3:55 PM 50.0 °F - 28.4 °F 43% 29.78 in 10.0 mi WSW 27.6 mph - N/A   Overcast
4:15 PM 48.2 °F - 26.6 °F 43% 29.78 in 10.0 mi WSW 25.3 mph 29.9 mph N/A   Overcast
4:35 PM 48.2 °F - 26.6 °F 43% 29.79 in 10.0 mi WSW 24.2 mph 28.8 mph N/A   Overcast
4:55 PM 46.4 °F 38.7 °F 26.6 °F 46% 29.79 in 10.0 mi WSW 20.7 mph 27.6 mph N/A   Overcast
5:15 PM 46.4 °F 39.5 °F 26.6 °F 46% 29.81 in 10.0 mi West 17.3 mph 23.0 mph N/A   Overcast
5:35 PM 46.4 °F 39.0 °F 26.6 °F 46% 29.81 in 10.0 mi West 19.6 mph 24.2 mph N/A   Overcast
5:55 PM 44.6 °F 36.4 °F 26.6 °F 49% 29.81 in 10.0 mi WSW 20.7 mph 27.6 mph N/A   Overcast
6:15 PM 44.6 °F 37.2 °F 26.6 °F 49% 29.81 in 10.0 mi WSW 17.3 mph - N/A   Mostly Cloudy
6:35 PM 42.8 °F 35.1 °F 26.6 °F 53% 29.82 in 10.0 mi WSW 16.1 mph - N/A   Partly Cloudy
6:55 PM 42.8 °F 36.2 °F 26.6 °F 53% 29.83 in 10.0 mi WSW 12.7 mph - N/A   Clear
7:15 PM 41.0 °F 35.2 °F 26.6 °F 57% 29.83 in 10.0 mi WSW 9.2 mph - N/A   Clear
7:35 PM 39.2 °F 33.0 °F 26.6 °F 61% 29.84 in 10.0 mi WSW 9.2 mph - N/A   Clear
7:55 PM 37.4 °F 31.4 °F 28.4 °F 70% 29.85 in 10.0 mi West 8.1 mph - N/A   Clear
8:15 PM 35.6 °F 29.2 °F 28.4 °F 75% 29.85 in 10.0 mi West 8.1 mph - N/A   Clear
8:35 PM 35.6 °F 30.7 °F 28.4 °F 75% 29.86 in 10.0 mi West 5.8 mph - N/A   Clear
8:55 PM 35.6 °F 28.0 °F 28.4 °F 75% 29.87 in 10.0 mi West 10.4 mph - N/A   Clear
9:15 PM 37.4 °F 29.3 °F 28.4 °F 70% 29.87 in 10.0 mi West 12.7 mph - N/A   Clear
9:35 PM 39.2 °F 30.8 °F 28.4 °F 65% 29.88 in 10.0 mi West 15.0 mph 19.6 mph N/A   Clear
9:55 PM 39.2 °F 30.5 °F 28.4 °F 65% 29.88 in 10.0 mi West 16.1 mph - N/A   Clear
10:15 PM 39.2 °F 29.3 °F 28.4 °F 65% 29.89 in 10.0 mi West 20.7 mph - N/A   Clear
10:35 PM 39.2 °F 29.8 °F 28.4 °F 65% 29.91 in 10.0 mi West 18.4 mph - N/A   Mostly Cloudy
10:55 PM 41.0 °F 33.5 °F 28.4 °F 61% 29.93 in 10.0 mi WSW 13.8 mph - N/A   Overcast
11:15 PM 39.2 °F 30.5 °F 28.4 °F 65% 29.92 in 10.0 mi West 16.1 mph - N/A   Overcast
11:35 PM 41.0 °F 31.1 °F 28.4 °F 61% 29.91 in 10.0 mi West 23.0 mph - N/A   Overcast
11:55 PM 41.0 °F 30.2 °F 28.4 °F 61% 29.89 in 10.0 mi West 27.6 mph - N/A   Scattered Clouds